contact:dominique.lefevre@mio.osupytheas.fr, maurice.libes@osupytheas.fr, didier.mallarino@osupytheas.fr
Project:EMSO http://www.emso-fr.org/EMSO-France
Depth: 2436.0 m
Title:EMSO Ligure Ouest : Data MII capteur CSTAR
DateTime,Latitude,Longitude,Instrument_Serial,Reference_Counts,Signal_Counts,Corrected_Signal_raw_counts,Calculated_Beam_c_inverse_meters,Internal_thermistor_counts
DateTime,Latitude,Longitude,Instrument_Serial,Reference_Counts,Signal_Counts,Corrected_Signal_raw_counts,Calculated_Beam_c_inverse_meters,Internal_thermistor_counts
2023-03-16T00:00:17,42.805,6.029,CST-1368DR,4352,4756,11608,01.186,551
2023-03-16T00:03:18,42.805,6.029,CST-1368DR,4352,4757,11609,01.186,551
2023-03-16T00:06:20,42.805,6.029,CST-1368DR,4352,4755,11606,01.187,551
2023-03-16T00:09:22,42.805,6.029,CST-1368DR,4352,4749,11590,01.193,551
2023-03-16T00:12:23,42.805,6.029,CST-1368DR,4352,4754,11603,01.188,551
2023-03-16T00:15:25,42.805,6.029,CST-1368DR,4352,4757,11610,01.186,551
2023-03-16T00:18:26,42.805,6.029,CST-1368DR,4352,4758,11612,01.185,551
2023-03-16T00:21:28,42.805,6.029,CST-1368DR,4352,4750,11594,01.191,551
2023-03-16T00:24:30,42.805,6.029,CST-1368DR,4352,4757,11609,01.186,551
2023-03-16T00:27:31,42.805,6.029,CST-1368DR,4352,4756,11607,01.187,551
2023-03-16T00:30:33,42.805,6.029,CST-1368DR,4352,4753,11601,01.189,551
2023-03-16T00:33:34,42.805,6.029,CST-1368DR,4352,4757,11609,01.186,551
2023-03-16T00:36:36,42.805,6.029,CST-1368DR,4352,4754,11603,01.188,551
2023-03-16T00:39:37,42.805,6.029,CST-1368DR,4352,4756,11608,01.186,551
2023-03-16T00:42:39,42.805,6.029,CST-1368DR,4352,4756,11608,01.186,551
2023-03-16T00:45:41,42.805,6.029,CST-1368DR,4352,4755,11604,01.188,551
2023-03-16T00:48:42,42.805,6.029,CST-1368DR,4352,4758,11612,01.185,551
2023-03-16T00:51:44,42.805,6.029,CST-1368DR,4352,4753,11600,01.189,551
2023-03-16T00:54:45,42.805,6.029,CST-1368DR,4352,4755,11604,01.188,551
2023-03-16T00:57:47,42.805,6.029,CST-1368DR,4352,4758,11612,01.185,551
2023-03-16T01:00:48,42.805,6.029,CST-1368DR,4352,4758,11612,01.185,551
2023-03-16T01:03:50,42.805,6.029,CST-1368DR,4352,4755,11606,01.187,551
2023-03-16T01:06:52,42.805,6.029,CST-1368DR,4352,4756,11607,01.187,551
2023-03-16T01:09:53,42.805,6.029,CST-1368DR,4352,4750,11593,01.192,551
2023-03-16T01:12:55,42.805,6.029,CST-1368DR,4352,4752,11598,01.190,551
2023-03-16T01:15:56,42.805,6.029,CST-1368DR,4352,4756,11609,01.186,551
2023-03-16T01:18:58,42.805,6.029,CST-1368DR,4352,4759,11615,01.184,551
2023-03-16T01:21:59,42.805,6.029,CST-1368DR,4352,4754,11603,01.188,551
2023-03-16T01:25:01,42.805,6.029,CST-1368DR,4352,4753,11601,01.189,551
2023-03-16T01:28:03,42.805,6.029,CST-1368DR,4352,4755,11604,01.188,551
2023-03-16T01:31:04,42.805,6.029,CST-1368DR,4352,4753,11600,01.189,551
2023-03-16T01:34:06,42.805,6.029,CST-1368DR,4352,4754,11603,01.188,551
2023-03-16T01:37:07,42.805,6.029,CST-1368DR,4352,4756,11609,01.186,551
2023-03-16T01:40:09,42.805,6.029,CST-1368DR,4352,4759,11614,01.184,551
2023-03-16T01:43:11,42.805,6.029,CST-1368DR,4352,4757,11610,01.186,551
2023-03-16T01:46:12,42.805,6.029,CST-1368DR,4352,4757,11609,01.186,551
2023-03-16T01:49:14,42.805,6.029,CST-1368DR,4352,4754,11602,01.188,551
2023-03-16T01:52:15,42.805,6.029,CST-1368DR,4352,4755,11604,01.188,551
2023-03-16T01:55:17,42.805,6.029,CST-1368DR,4352,4757,11609,01.186,551
2023-03-16T01:58:18,42.805,6.029,CST-1368DR,4352,4753,11600,01.189,551
2023-03-16T02:01:20,42.805,6.029,CST-1368DR,4352,4755,11604,01.188,551
2023-03-16T02:04:22,42.805,6.029,CST-1368DR,4352,4757,11611,01.185,551
2023-03-16T02:07:23,42.805,6.029,CST-1368DR,4352,4753,11601,01.189,551
2023-03-16T02:10:25,42.805,6.029,CST-1368DR,4352,4748,11587,01.194,551
2023-03-16T02:13:26,42.805,6.029,CST-1368DR,4352,4752,11599,01.190,551
2023-03-16T02:16:28,42.805,6.029,CST-1368DR,4352,4756,11607,01.187,551
2023-03-16T02:19:29,42.805,6.029,CST-1368DR,4352,4750,11593,01.192,551
2023-03-16T02:22:31,42.805,6.029,CST-1368DR,4352,4757,11611,01.185,551
2023-03-16T02:25:33,42.805,6.029,CST-1368DR,4352,4752,11597,01.190,551
2023-03-16T02:28:34,42.805,6.029,CST-1368DR,4352,4754,11603,01.188,551
2023-03-16T02:31:36,42.805,6.029,CST-1368DR,4352,4753,11601,01.189,551
2023-03-16T02:34:37,42.805,6.029,CST-1368DR,4352,4753,11600,01.189,551
2023-03-16T02:37:39,42.805,6.029,CST-1368DR,4352,4754,11602,01.188,551
2023-03-16T02:40:41,42.805,6.029,CST-1368DR,4352,4754,11604,01.188,551
2023-03-16T02:43:42,42.805,6.029,CST-1368DR,4352,4753,11601,01.189,551
2023-03-16T02:46:44,42.805,6.029,CST-1368DR,4352,4750,11592,01.192,551
2023-03-16T02:49:45,42.805,6.029,CST-1368DR,4352,4752,11599,01.190,551
2023-03-16T02:52:47,42.805,6.029,CST-1368DR,4352,4755,11606,01.187,551
2023-03-16T02:55:48,42.805,6.029,CST-1368DR,4352,4751,11595,01.191,551
2023-03-16T02:58:50,42.805,6.029,CST-1368DR,4352,4754,11602,01.188,551
2023-03-16T03:01:52,42.805,6.029,CST-1368DR,4352,4750,11594,01.191,551
2023-03-16T03:04:53,42.805,6.029,CST-1368DR,4352,4752,11598,01.190,551
2023-03-16T03:07:55,42.805,6.029,CST-1368DR,4352,4755,11606,01.187,551
2023-03-16T03:10:56,42.805,6.029,CST-1368DR,4352,4755,11606,01.187,551
2023-03-16T03:13:58,42.805,6.029,CST-1368DR,4352,4753,11601,01.189,551
2023-03-16T03:16:59,42.805,6.029,CST-1368DR,4352,4753,11601,01.189,551
2023-03-16T03:20:01,42.805,6.029,CST-1368DR,4352,4753,11601,01.189,551
2023-03-16T03:23:03,42.805,6.029,CST-1368DR,4352,4753,11600,01.189,551
2023-03-16T03:26:04,42.805,6.029,CST-1368DR,4352,4751,11596,01.191,551
2023-03-16T03:29:06,42.805,6.029,CST-1368DR,4352,4746,11584,01.195,551
2023-03-16T03:32:07,42.805,6.029,CST-1368DR,4352,4747,11587,01.194,551
2023-03-16T03:35:09,42.805,6.029,CST-1368DR,4352,4754,11603,01.188,551
2023-03-16T03:38:11,42.805,6.029,CST-1368DR,4352,4753,11600,01.189,551
2023-03-16T03:41:12,42.805,6.029,CST-1368DR,4352,4754,11603,01.188,551
2023-03-16T03:44:14,42.805,6.029,CST-1368DR,4352,4751,11595,01.191,551
2023-03-16T03:47:15,42.805,6.029,CST-1368DR,4352,4752,11598,01.190,551
2023-03-16T03:50:17,42.805,6.029,CST-1368DR,4352,4751,11595,01.191,551
2023-03-16T03:53:18,42.805,6.029,CST-1368DR,4352,4754,11603,01.188,551
2023-03-16T03:56:20,42.805,6.029,CST-1368DR,4352,4753,11600,01.189,551
2023-03-16T03:59:22,42.805,6.029,CST-1368DR,4352,4753,11600,01.189,551
2023-03-16T04:02:23,42.805,6.029,CST-1368DR,4352,4758,11612,01.185,551
2023-03-16T04:05:25,42.805,6.029,CST-1368DR,4352,4756,11607,01.187,551
2023-03-16T04:08:26,42.805,6.029,CST-1368DR,4352,4757,11609,01.186,551
2023-03-16T04:11:28,42.805,6.029,CST-1368DR,4352,4754,11602,01.188,551
2023-03-16T04:14:29,42.805,6.029,CST-1368DR,4352,4760,11617,01.183,551
2023-03-16T04:17:31,42.805,6.029,CST-1368DR,4352,4754,11602,01.188,551
2023-03-16T04:20:33,42.805,6.029,CST-1368DR,4352,4757,11609,01.186,551
2023-03-16T04:23:34,42.805,6.029,CST-1368DR,4352,4755,11606,01.187,551
2023-03-16T04:26:36,42.805,6.029,CST-1368DR,4352,4754,11603,01.188,551
2023-03-16T04:29:37,42.805,6.029,CST-1368DR,4352,4757,11610,01.186,551
2023-03-16T04:32:39,42.805,6.029,CST-1368DR,4352,4756,11608,01.186,551
2023-03-16T04:35:41,42.805,6.029,CST-1368DR,4352,4755,11606,01.187,551
2023-03-16T04:38:42,42.805,6.029,CST-1368DR,4352,4755,11604,01.188,551
2023-03-16T04:41:44,42.805,6.029,CST-1368DR,4352,4758,11612,01.185,551
2023-03-16T04:44:45,42.805,6.029,CST-1368DR,4352,4758,11612,01.185,551
2023-03-16T04:47:47,42.805,6.029,CST-1368DR,4352,4757,11611,01.185,551
2023-03-16T04:50:48,42.805,6.029,CST-1368DR,4352,4757,11610,01.186,551
2023-03-16T04:53:50,42.805,6.029,CST-1368DR,4352,4757,11611,01.185,551
2023-03-16T04:56:52,42.805,6.029,CST-1368DR,4352,4752,11599,01.190,551
2023-03-16T04:59:53,42.805,6.029,CST-1368DR,4352,4757,11610,01.186,551
2023-03-16T05:02:55,42.805,6.029,CST-1368DR,4352,4755,11606,01.187,551
2023-03-16T05:05:56,42.805,6.029,CST-1368DR,4352,4756,11609,01.186,551
2023-03-16T05:08:58,42.805,6.029,CST-1368DR,4352,4749,11590,01.193,551
2023-03-16T05:11:59,42.805,6.029,CST-1368DR,4352,4756,11607,01.187,551
2023-03-16T05:15:01,42.805,6.029,CST-1368DR,4352,4756,11608,01.186,551
2023-03-16T05:18:03,42.805,6.029,CST-1368DR,4352,4756,11607,01.187,551
2023-03-16T05:21:04,42.805,6.029,CST-1368DR,4352,4755,11606,01.187,551
2023-03-16T05:24:06,42.805,6.029,CST-1368DR,4352,4757,11611,01.185,551
2023-03-16T05:27:07,42.805,6.029,CST-1368DR,4352,4758,11614,01.184,551
2023-03-16T05:30:09,42.805,6.029,CST-1368DR,4352,4758,11614,01.184,551
2023-03-16T05:33:11,42.805,6.029,CST-1368DR,4352,4757,11610,01.186,551
2023-03-16T05:36:12,42.805,6.029,CST-1368DR,4352,4750,11593,01.192,551
2023-03-16T05:39:14,42.805,6.029,CST-1368DR,4352,4754,11603,01.188,551
2023-03-16T05:42:15,42.805,6.029,CST-1368DR,4352,4757,11609,01.186,551
2023-03-16T05:45:17,42.805,6.029,CST-1368DR,4352,4758,11614,01.184,551
2023-03-16T05:48:18,42.805,6.029,CST-1368DR,4352,4756,11609,01.186,551
2023-03-16T05:51:20,42.805,6.029,CST-1368DR,4352,4759,11614,01.184,551
2023-03-16T05:54:22,42.805,6.029,CST-1368DR,4352,4756,11608,01.186,551
2023-03-16T05:57:23,42.805,6.029,CST-1368DR,4352,4760,11618,01.183,551
2023-03-16T06:00:25,42.805,6.029,CST-1368DR,4352,4758,11614,01.184,551
2023-03-16T06:03:26,42.805,6.029,CST-1368DR,4352,4758,11612,01.185,551
2023-03-16T06:06:28,42.805,6.029,CST-1368DR,4352,4754,11604,01.188,551
2023-03-16T06:09:29,42.805,6.029,CST-1368DR,4352,4759,11615,01.184,551
2023-03-16T06:12:31,42.805,6.029,CST-1368DR,4352,4757,11611,01.185,551
2023-03-16T06:15:33,42.805,6.029,CST-1368DR,4352,4753,11601,01.189,551
2023-03-16T06:18:34,42.805,6.029,CST-1368DR,4352,4754,11603,01.188,551
2023-03-16T06:21:36,42.805,6.029,CST-1368DR,4352,4758,11612,01.185,551
2023-03-16T06:24:37,42.805,6.029,CST-1368DR,4352,4758,11612,01.185,551
2023-03-16T06:27:39,42.805,6.029,CST-1368DR,4352,4755,11604,01.188,551
2023-03-16T06:30:41,42.805,6.029,CST-1368DR,4352,4753,11601,01.189,551
2023-03-16T06:33:42,42.805,6.029,CST-1368DR,4352,4754,11604,01.188,551
2023-03-16T06:36:44,42.805,6.029,CST-1368DR,4352,4757,11610,01.186,551
2023-03-16T06:39:45,42.805,6.029,CST-1368DR,4352,4754,11603,01.188,551
2023-03-16T06:42:47,42.805,6.029,CST-1368DR,4352,4752,11598,01.190,551
2023-03-16T06:45:48,42.805,6.029,CST-1368DR,4352,4754,11603,01.188,551
2023-03-16T06:48:50,42.805,6.029,CST-1368DR,4352,4755,11606,01.187,551
2023-03-16T06:51:52,42.805,6.029,CST-1368DR,4352,4752,11598,01.190,551
2023-03-16T06:54:53,42.805,6.029,CST-1368DR,4352,4755,11606,01.187,551
2023-03-16T06:57:55,42.805,6.029,CST-1368DR,4352,4754,11602,01.188,551
2023-03-16T07:00:56,42.805,6.029,CST-1368DR,4352,4754,11603,01.188,551
2023-03-16T07:03:58,42.805,6.029,CST-1368DR,4352,4752,11599,01.190,551
2023-03-16T07:06:59,42.805,6.029,CST-1368DR,4352,4753,11600,01.189,551
2023-03-16T07:10:01,42.805,6.029,CST-1368DR,4352,4749,11590,01.193,551
2023-03-16T07:13:03,42.805,6.029,CST-1368DR,4352,4750,11594,01.191,551
2023-03-16T07:16:04,42.805,6.029,CST-1368DR,4352,4755,11606,01.187,551
2023-03-16T07:19:06,42.805,6.029,CST-1368DR,4352,4752,11598,01.190,551
2023-03-16T07:22:07,42.805,6.029,CST-1368DR,4352,4753,11601,01.189,551
2023-03-16T07:25:09,42.805,6.029,CST-1368DR,4352,4754,11603,01.188,551
2023-03-16T07:28:10,42.805,6.029,CST-1368DR,4352,4756,11607,01.187,551
2023-03-16T07:31:12,42.805,6.029,CST-1368DR,4352,4750,11593,01.192,551
2023-03-16T07:34:14,42.805,6.029,CST-1368DR,4352,4753,11601,01.189,551
2023-03-16T07:37:15,42.805,6.029,CST-1368DR,4352,4753,11601,01.189,551
2023-03-16T07:40:17,42.805,6.029,CST-1368DR,4352,4751,11596,01.191,551
2023-03-16T07:43:18,42.805,6.029,CST-1368DR,4352,4749,11591,01.192,551
2023-03-16T07:46:20,42.805,6.029,CST-1368DR,4352,4750,11592,01.192,551
2023-03-16T07:49:22,42.805,6.029,CST-1368DR,4352,4752,11598,01.190,551
2023-03-16T07:52:23,42.805,6.029,CST-1368DR,4352,4750,11593,01.192,551
2023-03-16T07:55:25,42.805,6.029,CST-1368DR,4352,4753,11600,01.189,551
2023-03-16T07:58:26,42.805,6.029,CST-1368DR,4352,4750,11592,01.192,551
2023-03-16T08:01:28,42.805,6.029,CST-1368DR,4352,4751,11595,01.191,551
2023-03-16T08:04:29,42.805,6.029,CST-1368DR,4352,4754,11602,01.188,551
2023-03-16T08:07:31,42.805,6.029,CST-1368DR,4352,4752,11598,01.190,551
2023-03-16T08:10:33,42.805,6.029,CST-1368DR,4352,4752,11598,01.190,551
2023-03-16T08:13:34,42.805,6.029,CST-1368DR,4352,4753,11601,01.189,551
2023-03-16T08:16:36,42.805,6.029,CST-1368DR,4352,4753,11601,01.189,551
2023-03-16T08:19:37,42.805,6.029,CST-1368DR,4352,4754,11604,01.188,551
2023-03-16T08:22:39,42.805,6.029,CST-1368DR,4352,4754,11603,01.188,551
2023-03-16T08:25:40,42.805,6.029,CST-1368DR,4352,4755,11606,01.187,551
2023-03-16T08:28:42,42.805,6.029,CST-1368DR,4352,4756,11608,01.186,551
2023-03-16T08:31:44,42.805,6.029,CST-1368DR,4352,4756,11607,01.187,551
2023-03-16T08:34:45,42.805,6.029,CST-1368DR,4352,4753,11601,01.189,551
2023-03-16T08:37:47,42.805,6.029,CST-1368DR,4352,4757,11611,01.185,551
2023-03-16T08:40:48,42.805,6.029,CST-1368DR,4352,4751,11596,01.191,551
2023-03-16T08:43:50,42.805,6.029,CST-1368DR,4352,4753,11600,01.189,551
2023-03-16T08:46:51,42.805,6.029,CST-1368DR,4352,4754,11604,01.188,551
2023-03-16T08:49:53,42.805,6.029,CST-1368DR,4352,4754,11603,01.188,551
2023-03-16T08:52:55,42.805,6.029,CST-1368DR,4352,4754,11603,01.188,551
2023-03-16T08:55:56,42.805,6.029,CST-1368DR,4352,4755,11606,01.187,551
2023-03-16T08:58:58,42.805,6.029,CST-1368DR,4352,4754,11603,01.188,551
2023-03-16T09:01:59,42.805,6.029,CST-1368DR,4352,4753,11601,01.189,551
2023-03-16T09:05:01,42.805,6.029,CST-1368DR,4352,4758,11612,01.185,551
2023-03-16T09:08:03,42.805,6.029,CST-1368DR,4352,4750,11593,01.192,551
2023-03-16T09:11:04,42.805,6.029,CST-1368DR,4352,4754,11603,01.188,551
2023-03-16T09:14:06,42.805,6.029,CST-1368DR,4352,4755,11606,01.187,551
2023-03-16T09:17:07,42.805,6.029,CST-1368DR,4352,4756,11608,01.186,551
2023-03-16T09:20:09,42.805,6.029,CST-1368DR,4352,4750,11594,01.191,551
2023-03-16T09:23:10,42.805,6.029,CST-1368DR,4352,4757,11611,01.185,551
2023-03-16T09:26:12,42.805,6.029,CST-1368DR,4352,4756,11607,01.187,551
2023-03-16T09:29:14,42.805,6.029,CST-1368DR,4352,4755,11606,01.187,551
2023-03-16T09:32:15,42.805,6.029,CST-1368DR,4352,4758,11612,01.185,551
2023-03-16T09:35:17,42.805,6.029,CST-1368DR,4352,4759,11614,01.184,551
2023-03-16T09:38:18,42.805,6.029,CST-1368DR,4352,4754,11603,01.188,551
2023-03-16T09:41:20,42.805,6.029,CST-1368DR,4352,4758,11612,01.185,551
2023-03-16T09:44:21,42.805,6.029,CST-1368DR,4352,4757,11609,01.186,551
2023-03-16T09:47:23,42.805,6.029,CST-1368DR,4352,4756,11609,01.186,551
2023-03-16T09:50:25,42.805,6.029,CST-1368DR,4352,4759,11614,01.184,551
2023-03-16T09:53:26,42.805,6.029,CST-1368DR,4352,4758,11612,01.185,551
2023-03-16T09:56:28,42.805,6.029,CST-1368DR,4352,4757,11611,01.185,551
2023-03-16T09:59:29,42.805,6.029,CST-1368DR,4352,4760,11618,01.183,551
2023-03-16T10:02:31,42.805,6.029,CST-1368DR,4352,4759,11615,01.184,551
2023-03-16T10:05:33,42.805,6.029,CST-1368DR,4352,4758,11612,01.185,551
2023-03-16T10:08:34,42.805,6.029,CST-1368DR,4352,4749,11592,01.192,551
2023-03-16T10:11:36,42.805,6.029,CST-1368DR,4352,4753,11601,01.189,551
2023-03-16T10:14:37,42.805,6.029,CST-1368DR,4352,4753,11601,01.189,551
2023-03-16T10:17:39,42.805,6.029,CST-1368DR,4352,4757,11609,01.186,551
2023-03-16T10:20:40,42.805,6.029,CST-1368DR,4352,4758,11612,01.185,551
2023-03-16T10:23:42,42.805,6.029,CST-1368DR,4352,4758,11612,01.185,551
2023-03-16T10:26:44,42.805,6.029,CST-1368DR,4352,4754,11603,01.188,551
2023-03-16T10:29:45,42.805,6.029,CST-1368DR,4352,4752,11599,01.190,551
2023-03-16T10:32:47,42.805,6.029,CST-1368DR,4352,4754,11602,01.188,551
2023-03-16T10:35:48,42.805,6.029,CST-1368DR,4352,4757,11611,01.185,551
2023-03-16T10:38:50,42.805,6.029,CST-1368DR,4351,4752,11601,01.189,551
2023-03-16T10:41:51,42.805,6.029,CST-1368DR,4352,4753,11600,01.189,551
2023-03-16T10:44:53,42.805,6.029,CST-1368DR,4352,4755,11606,01.187,551
2023-03-16T10:47:55,42.805,6.029,CST-1368DR,4352,4755,11604,01.188,551
2023-03-16T10:50:56,42.805,6.029,CST-1368DR,4352,4752,11598,01.190,551
2023-03-16T10:53:58,42.805,6.029,CST-1368DR,4352,4752,11598,01.190,551
2023-03-16T10:56:59,42.805,6.029,CST-1368DR,4352,4753,11600,01.189,551
2023-03-16T11:00:01,42.805,6.029,CST-1368DR,4352,4754,11603,01.188,551
2023-03-16T11:03:02,42.805,6.029,CST-1368DR,4352,4756,11607,01.187,551
2023-03-16T11:06:04,42.805,6.029,CST-1368DR,4351,4745,11584,01.195,551
2023-03-16T11:09:06,42.805,6.029,CST-1368DR,4352,4748,11589,01.193,551
2023-03-16T11:12:07,42.805,6.029,CST-1368DR,4351,4747,11589,01.193,551
2023-03-16T11:15:09,42.805,6.029,CST-1368DR,4351,4746,11586,01.194,551
2023-03-16T11:18:10,42.805,6.029,CST-1368DR,4351,4746,11587,01.194,551
2023-03-16T11:21:12,42.805,6.029,CST-1368DR,4351,4749,11594,01.191,551
2023-03-16T11:24:14,42.805,6.029,CST-1368DR,4351,4748,11590,01.193,551
2023-03-16T11:27:15,42.805,6.029,CST-1368DR,4352,4750,11592,01.192,551
2023-03-16T11:30:17,42.805,6.029,CST-1368DR,4352,4751,11595,01.191,551
2023-03-16T11:33:18,42.805,6.029,CST-1368DR,4352,4753,11601,01.189,551
2023-03-16T11:36:20,42.805,6.029,CST-1368DR,4352,4751,11595,01.191,551
2023-03-16T11:39:21,42.805,6.029,CST-1368DR,4352,4754,11604,01.188,551
2023-03-16T11:42:23,42.805,6.029,CST-1368DR,4352,4750,11594,01.191,551
2023-03-16T11:45:25,42.805,6.029,CST-1368DR,4352,4749,11590,01.193,551
2023-03-16T11:48:26,42.805,6.029,CST-1368DR,4352,4751,11595,01.191,551
2023-03-16T11:51:28,42.805,6.029,CST-1368DR,4352,4752,11597,01.190,551
2023-03-16T11:54:29,42.805,6.029,CST-1368DR,4352,4751,11596,01.191,551
2023-03-16T11:57:31,42.805,6.029,CST-1368DR,4352,4752,11598,01.190,551
2023-03-16T12:00:33,42.805,6.029,CST-1368DR,4352,4754,11604,01.188,551
2023-03-16T12:03:34,42.805,6.029,CST-1368DR,4352,4753,11601,01.189,551
2023-03-16T12:06:36,42.805,6.029,CST-1368DR,4351,4749,11594,01.191,551
2023-03-16T12:09:37,42.805,6.029,CST-1368DR,4352,4749,11592,01.192,551
2023-03-16T12:12:39,42.805,6.029,CST-1368DR,4352,4752,11599,01.190,551
2023-03-16T12:15:40,42.805,6.029,CST-1368DR,4352,4753,11600,01.189,551
2023-03-16T12:18:42,42.805,6.029,CST-1368DR,4352,4754,11603,01.188,551
2023-03-16T12:21:44,42.805,6.029,CST-1368DR,4352,4756,11607,01.187,551
2023-03-16T12:24:45,42.805,6.029,CST-1368DR,4352,4750,11593,01.192,551
2023-03-16T12:27:47,42.805,6.029,CST-1368DR,4351,4747,11588,01.193,551
2023-03-16T12:30:48,42.805,6.029,CST-1368DR,4351,4749,11594,01.191,551
2023-03-16T12:33:50,42.805,6.029,CST-1368DR,4351,4752,11600,01.189,551
2023-03-16T12:36:51,42.805,6.029,CST-1368DR,4351,4751,11598,01.190,551
2023-03-16T12:39:53,42.805,6.029,CST-1368DR,4352,4754,11604,01.188,551
2023-03-16T12:42:55,42.805,6.029,CST-1368DR,4351,4754,11606,01.187,551
2023-03-16T12:45:56,42.805,6.029,CST-1368DR,4351,4747,11589,01.193,551
2023-03-16T12:48:58,42.805,6.029,CST-1368DR,4352,4750,11594,01.191,551
2023-03-16T12:51:59,42.805,6.029,CST-1368DR,4352,4752,11599,01.190,551
2023-03-16T12:55:01,42.805,6.029,CST-1368DR,4351,4752,11601,01.189,551
2023-03-16T12:58:03,42.805,6.029,CST-1368DR,4351,4753,11603,01.188,551
2023-03-16T13:01:04,42.805,6.029,CST-1368DR,4351,4752,11600,01.189,551
2023-03-16T13:04:06,42.805,6.029,CST-1368DR,4351,4752,11600,01.189,551
2023-03-16T13:07:07,42.805,6.029,CST-1368DR,4351,4754,11606,01.187,552
2023-03-16T13:10:09,42.805,6.029,CST-1368DR,4351,4750,11597,01.190,551
2023-03-16T13:13:10,42.805,6.029,CST-1368DR,4351,4753,11602,01.188,551
2023-03-16T13:16:12,42.805,6.029,CST-1368DR,4351,4749,11594,01.191,551
2023-03-16T13:19:14,42.805,6.029,CST-1368DR,4351,4749,11593,01.192,551
2023-03-16T13:22:15,42.805,6.029,CST-1368DR,4351,4752,11601,01.189,551
2023-03-16T13:25:17,42.805,6.029,CST-1368DR,4351,4754,11605,01.187,551
2023-03-16T13:28:18,42.805,6.029,CST-1368DR,4351,4753,11603,01.188,551
2023-03-16T13:31:20,42.805,6.029,CST-1368DR,4351,4754,11606,01.187,551
2023-03-16T13:34:21,42.805,6.029,CST-1368DR,4351,4752,11601,01.189,551
2023-03-16T13:37:23,42.805,6.029,CST-1368DR,4351,4753,11602,01.188,551
2023-03-16T13:40:25,42.805,6.029,CST-1368DR,4351,4751,11597,01.190,551
2023-03-16T13:43:26,42.805,6.029,CST-1368DR,4351,4749,11592,01.192,551
2023-03-16T13:46:28,42.805,6.029,CST-1368DR,4351,4752,11600,01.189,551
2023-03-16T13:49:29,42.805,6.029,CST-1368DR,4351,4751,11598,01.190,551
2023-03-16T13:52:31,42.805,6.029,CST-1368DR,4351,4751,11597,01.190,551
2023-03-16T13:55:32,42.805,6.029,CST-1368DR,4351,4753,11602,01.188,551
2023-03-16T13:58:34,42.805,6.029,CST-1368DR,4351,4749,11594,01.191,551
2023-03-16T14:01:36,42.805,6.029,CST-1368DR,4351,4750,11596,01.191,551
2023-03-16T14:04:37,42.805,6.029,CST-1368DR,4351,4750,11597,01.190,551
2023-03-16T14:07:39,42.805,6.029,CST-1368DR,4351,4744,11580,01.196,551
2023-03-16T14:10:40,42.805,6.029,CST-1368DR,4351,4751,11598,01.190,551
2023-03-16T14:13:42,42.805,6.029,CST-1368DR,4351,4745,11584,01.195,551
2023-03-16T14:16:44,42.805,6.029,CST-1368DR,4351,4742,11576,01.197,551
2023-03-16T14:19:45,42.805,6.029,CST-1368DR,4351,4744,11580,01.196,551
2023-03-16T14:22:47,42.805,6.029,CST-1368DR,4351,4747,11587,01.194,551
2023-03-16T14:25:48,42.805,6.029,CST-1368DR,4351,4745,11583,01.195,551
2023-03-16T14:28:50,42.805,6.029,CST-1368DR,4351,4746,11586,01.194,551
2023-03-16T14:31:51,42.805,6.029,CST-1368DR,4351,4746,11586,01.194,551
2023-03-16T14:34:53,42.805,6.029,CST-1368DR,4351,4747,11588,01.193,551
2023-03-16T14:37:55,42.805,6.029,CST-1368DR,4351,4744,11581,01.196,551
2023-03-16T14:40:56,42.805,6.029,CST-1368DR,4351,4741,11573,01.198,551
2023-03-16T14:43:58,42.805,6.029,CST-1368DR,4351,4741,11574,01.198,551
2023-03-16T14:46:59,42.805,6.029,CST-1368DR,4351,4744,11582,01.195,551
2023-03-16T14:50:01,42.805,6.029,CST-1368DR,4351,4743,11578,01.197,551
2023-03-16T14:53:03,42.805,6.029,CST-1368DR,4351,4745,11583,01.195,551
2023-03-16T14:56:04,42.805,6.029,CST-1368DR,4351,4743,11578,01.197,551
2023-03-16T14:59:06,42.805,6.029,CST-1368DR,4351,4744,11581,01.196,551
2023-03-16T15:02:07,42.805,6.029,CST-1368DR,4351,4744,11580,01.196,551
2023-03-16T15:05:09,42.805,6.029,CST-1368DR,4351,4742,11576,01.197,551
2023-03-16T15:08:10,42.805,6.029,CST-1368DR,4351,4743,11578,01.197,551
2023-03-16T15:11:12,42.805,6.029,CST-1368DR,4351,4739,11570,01.200,551
2023-03-16T15:14:14,42.805,6.029,CST-1368DR,4351,4744,11582,01.195,551
2023-03-16T15:17:15,42.805,6.029,CST-1368DR,4351,4745,11584,01.195,551
2023-03-16T15:20:17,42.805,6.029,CST-1368DR,4351,4744,11580,01.196,551
2023-03-16T15:23:18,42.805,6.029,CST-1368DR,4351,4745,11584,01.195,551
2023-03-16T15:26:20,42.805,6.029,CST-1368DR,4351,4743,11578,01.197,551
2023-03-16T15:29:21,42.805,6.029,CST-1368DR,4351,4741,11573,01.198,551
2023-03-16T15:32:23,42.805,6.029,CST-1368DR,4351,4743,11578,01.197,551
2023-03-16T15:35:25,42.805,6.029,CST-1368DR,4351,4753,11604,01.188,551
2023-03-16T15:38:26,42.805,6.029,CST-1368DR,4351,4740,11570,01.200,551
2023-03-16T15:41:28,42.805,6.029,CST-1368DR,4351,4738,11567,01.201,551
2023-03-16T15:44:29,42.805,6.029,CST-1368DR,4351,4737,11564,01.202,552
2023-03-16T15:47:31,42.805,6.029,CST-1368DR,4351,4739,11569,01.200,551
2023-03-16T15:50:33,42.805,6.029,CST-1368DR,4351,4742,11575,01.198,551
2023-03-16T15:53:34,42.805,6.029,CST-1368DR,4351,4739,11569,01.200,551
2023-03-16T15:56:36,42.805,6.029,CST-1368DR,4351,4741,11574,01.198,551
2023-03-16T15:59:37,42.805,6.029,CST-1368DR,4351,4742,11575,01.198,551
2023-03-16T16:02:39,42.805,6.029,CST-1368DR,4351,4743,11580,01.196,551
2023-03-16T16:05:40,42.805,6.029,CST-1368DR,4351,4740,11572,01.199,551
2023-03-16T16:08:42,42.805,6.029,CST-1368DR,4351,4740,11572,01.199,551
2023-03-16T16:11:44,42.805,6.029,CST-1368DR,4351,4740,11570,01.200,551
2023-03-16T16:14:45,42.805,6.029,CST-1368DR,4351,4741,11573,01.198,551
2023-03-16T16:17:47,42.805,6.029,CST-1368DR,4351,4736,11562,01.202,551
2023-03-16T16:20:48,42.805,6.029,CST-1368DR,4351,4743,11578,01.197,551
2023-03-16T16:23:50,42.805,6.029,CST-1368DR,4351,4740,11572,01.199,551
2023-03-16T16:26:51,42.805,6.029,CST-1368DR,4351,4744,11581,01.196,551
2023-03-16T16:29:53,42.805,6.029,CST-1368DR,4351,4741,11574,01.198,551
2023-03-16T16:32:55,42.805,6.029,CST-1368DR,4351,4736,11562,01.202,551
2023-03-16T16:35:56,42.805,6.029,CST-1368DR,4351,4741,11574,01.198,551